• In India
  • List of Countries
  • For 7 days
  • Water Temperature
  • Satellite Maps
  • Weather Map
  • Weather Widgets
  • user-avatar
    Login

    Hourly Weather Igls

    Today, 15 December, Saturday

    Time Temperature Precipitation Wind Pressure Humidity
    00:00 -10°C° 0 mm 1 mps 683 mmHg 73%
    01:00 -9°C° 0 mm 1 mps 684 mmHg 78%
    02:00 -9°C° 0 mm 1 mps 684 mmHg 79%
    03:00 -9°C° 0 mm 1 mps 684 mmHg 79%
    04:00 -9°C° 0 mm 1 mps 684 mmHg 79%
    05:00 -9°C° 0 mm 1 mps 684 mmHg 80%
    06:00 -9°C° 0 mm 1 mps 684 mmHg 80%
    07:00 -9°C° 0 mm 1 mps 684 mmHg 83%
    08:00 -8°C° 0 mm 1 mps 685 mmHg 82%
    09:00 -7°C° 0 mm 1 mps 685 mmHg 80%
    10:00 -4°C° 0 mm 1 mps 685 mmHg 78%
    11:00 -3°C° 0 mm 1 mps 685 mmHg 75%
    12:00 -2°C° 0 mm 1 mps 685 mmHg 71%
    13:00 0°C° 0 mm 1 mps 685 mmHg 68%
    14:00 -2°C° 0 mm 1 mps 684 mmHg 72%
    15:00 -3°C° 0 mm 1 mps 684 mmHg 76%
    16:00 -4°C° 0 mm 1 mps 684 mmHg 81%
    17:00 -6°C° 0 mm 1 mps 684 mmHg 78%
    18:00 -6°C° 0 mm 1 mps 684 mmHg 75%
    19:00 -7°C° 0 mm 1 mps 684 mmHg 72%
    20:00 -7°C° 0 mm 1 mps 684 mmHg 68%
    21:00 -7°C° 0 mm 1 mps 683 mmHg 64%
    22:00 -7°C° 0 mm 1 mps 683 mmHg 60%
    23:00 -6°C° 0 mm 1 mps 683 mmHg 58%

    Tomorrow, 16 December, Sunday

    Time Temperature Precipitation Wind Pressure Humidity
    00:00 -6°C° 0 mm 1 mps 682 mmHg 56%
    01:00 -6°C° 0 mm 1 mps 682 mmHg 54%
    02:00 -4°C° 0 mm 1 mps 682 mmHg 54%
    03:00 -3°C° 0 mm 1 mps 682 mmHg 54%
    04:00 -2°C° 0 mm 1 mps 682 mmHg 54%
    05:00 -1°C° 0.1 mm 1 mps 682 mmHg 59%
    06:00 -3°C° 0.1 mm 2 mps 682 mmHg 63%
    07:00 -2°C° 0.1 mm 2 mps 681 mmHg 67%
    08:00 -1°C° 0.2 mm 2 mps 681 mmHg 70%
    09:00 +1°C° 0.2 mm 2 mps 681 mmHg 72%
    10:00 +2°C° 0.2 mm 2 mps 681 mmHg 74%
    11:00 +4°C° 0.3 mm 1 mps 681 mmHg 76%
    12:00 +4°C° 0.3 mm 1 mps 681 mmHg 79%
    13:00 +5°C° 0.3 mm 1 mps 681 mmHg 81%
    14:00 +5°C° 0.2 mm 1 mps 681 mmHg 83%
    15:00 +4°C° 0.2 mm 1 mps 681 mmHg 85%
    16:00 +4°C° 0.2 mm 1 mps 682 mmHg 88%
    17:00 +3°C° 0.3 mm 1 mps 682 mmHg 89%
    18:00 +3°C° 0.3 mm 1 mps 682 mmHg 91%
    19:00 +3°C° 0.3 mm 1 mps 683 mmHg 92%
    20:00 +3°C° 0.5 mm 1 mps 683 mmHg 93%
    21:00 +2°C° 0.5 mm 1 mps 683 mmHg 93%
    22:00 +2°C° 0.5 mm 1 mps 683 mmHg 94%
    23:00 +2°C° 0.2 mm 1 mps 683 mmHg 93%

    Day after tomorrow, 17 December, Monday

    Time Temperature Precipitation Wind Pressure Humidity
    00:00 +2°C° 0.2 mm 1 mps 683 mmHg 93%
    01:00 +2°C° 0.2 mm 1 mps 683 mmHg 92%
    02:00 +1°C° 0 mm 1 mps 683 mmHg 91%
    03:00 +1°C° 0 mm 1 mps 682 mmHg 91%
    04:00 0°C° 0 mm 1 mps 682 mmHg 90%
    05:00 0°C° 0 mm 1 mps 682 mmHg 88%
    06:00 -1°C° 0 mm 1 mps 683 mmHg 86%
    07:00 -1°C° 0 mm 1 mps 683 mmHg 84%
    08:00 0°C° 0 mm 1 mps 684 mmHg 81%
    09:00 +1°C° 0 mm 1 mps 684 mmHg 79%
    10:00 +2°C° 0 mm 1 mps 685 mmHg 77%
    11:00 +3°C° 0 mm 1 mps 685 mmHg 75%
    12:00 +4°C° 0 mm 1 mps 685 mmHg 74%
    13:00 +5°C° 0 mm 1 mps 685 mmHg 73%
    14:00 +3°C° 0 mm 1 mps 685 mmHg 77%
    15:00 +1°C° 0 mm 2 mps 686 mmHg 81%
    16:00 -1°C° 0 mm 2 mps 686 mmHg 85%
    17:00 -1°C° 0 mm 2 mps 687 mmHg 84%
    18:00 -2°C° 0 mm 2 mps 687 mmHg 82%
    19:00 -2°C° 0 mm 2 mps 688 mmHg 81%
    20:00 -2°C° 0.1 mm 2 mps 688 mmHg 81%
    21:00 -2°C° 0.1 mm 2 mps 689 mmHg 81%
    22:00 -3°C° 0.1 mm 2 mps 689 mmHg 82%
    23:00 -3°C° 0.1 mm 2 mps 689 mmHg 84%

    18 December, Tuesday

    Time Temperature Precipitation Wind Pressure Humidity
    00:00 -1°C° 0.1 mm 1 mps 690 mmHg 85%
    01:00 -1°C° 0.1 mm 1 mps 690 mmHg 87%
    02:00 -1°C° 0 mm 1 mps 690 mmHg 88%
    03:00 -2°C° 0 mm 1 mps 690 mmHg 88%
    04:00 -2°C° 0 mm 1 mps 690 mmHg 88%
    05:00 -2°C° 0 mm 1 mps 690 mmHg 88%
    06:00 -2°C° 0 mm 1 mps 690 mmHg 87%
    07:00 -3°C° 0 mm 1 mps 690 mmHg 86%
    08:00 -1°C° 0 mm 1 mps 690 mmHg 83%
    09:00 0°C° 0 mm 1 mps 690 mmHg 80%
    10:00 +1°C° 0 mm 1 mps 691 mmHg 76%
    11:00 +3°C° 0 mm 1 mps 690 mmHg 75%
    12:00 +4°C° 0 mm 1 mps 690 mmHg 73%
    13:00 +5°C° 0 mm 1 mps 689 mmHg 71%
    14:00 +4°C° 0 mm 1 mps 689 mmHg 73%
    15:00 +3°C° 0 mm 1 mps 688 mmHg 75%
    16:00 +1°C° 0 mm 2 mps 688 mmHg 77%
    17:00 +1°C° 0 mm 2 mps 688 mmHg 74%
    18:00 -1°C° 0 mm 2 mps 688 mmHg 71%
    19:00 -2°C° 0 mm 2 mps 688 mmHg 68%
    20:00 -2°C° 0 mm 2 mps 687 mmHg 66%
    21:00 -2°C° 0 mm 2 mps 687 mmHg 63%
    22:00 -2°C° 0 mm 2 mps 687 mmHg 60%
    23:00 -2°C° 0 mm 2 mps 687 mmHg 58%

    19 December, Wednesday

    Time Temperature Precipitation Wind Pressure Humidity
    00:00 -2°C° 0 mm 2 mps 686 mmHg 57%
    01:00 -2°C° 0 mm 2 mps 686 mmHg 55%
    02:00 -2°C° 0 mm 2 mps 686 mmHg 54%
    03:00 -2°C° 0 mm 2 mps 685 mmHg 52%
    04:00 -1°C° 0 mm 2 mps 685 mmHg 51%
    05:00 -1°C° 0 mm 2 mps 685 mmHg 50%
    06:00 -1°C° 0 mm 2 mps 685 mmHg 49%
    07:00 +1°C° 0 mm 1 mps 685 mmHg 48%
    08:00 +2°C° 0 mm 1 mps 685 mmHg 50%
    09:00 +3°C° 0 mm 1 mps 685 mmHg 52%
    10:00 +4°C° 0 mm 1 mps 685 mmHg 54%
    11:00 +5°C° 0 mm 1 mps 685 mmHg 58%
    12:00 +6°C° 0 mm 1 mps 685 mmHg 62%
    13:00 +7°C° 0 mm 1 mps 684 mmHg 66%
    14:00 +6°C° 0 mm 1 mps 684 mmHg 66%
    15:00 +5°C° 0 mm 1 mps 684 mmHg 66%
    16:00 +4°C° 0 mm 1 mps 683 mmHg 66%
    17:00 +3°C° 0 mm 1 mps 683 mmHg 67%
    18:00 +2°C° 0 mm 2 mps 683 mmHg 67%
    19:00 +2°C° 0 mm 2 mps 683 mmHg 67%
    20:00 +1°C° 0 mm 2 mps 683 mmHg 68%
    21:00 +1°C° 0 mm 2 mps 683 mmHg 69%
    22:00 -1°C° 0 mm 2 mps 683 mmHg 71%
    23:00 -1°C° 0 mm 2 mps 683 mmHg 72%

    20 December, Thursday

    Time Temperature Precipitation Wind Pressure Humidity
    00:00 -1°C° 0 mm 2 mps 683 mmHg 73%
    01:00 -1°C° 0 mm 2 mps 683 mmHg 75%
    02:00 -2°C° 0 mm 2 mps 683 mmHg 76%
    03:00 -2°C° 0 mm 2 mps 683 mmHg 77%
    04:00 0°C° 0 mm 1 mps 683 mmHg 78%
    05:00 0°C° 0 mm 1 mps 683 mmHg 80%
    06:00 0°C° 0 mm 1 mps 683 mmHg 81%
    07:00 0°C° 0 mm 1 mps 684 mmHg 82%
    08:00 +1°C° 0.1 mm 1 mps 684 mmHg 82%
    09:00 +2°C° 0.1 mm 1 mps 684 mmHg 82%
    10:00 +2°C° 0.1 mm 0 mps 685 mmHg 83%
    11:00 +3°C° 0.2 mm 1 mps 684 mmHg 84%
    12:00 +4°C° 0.2 mm 1 mps 684 mmHg 84%
    13:00 +4°C° 0.2 mm 1 mps 684 mmHg 85%
    14:00 +4°C° 0.4 mm 1 mps 684 mmHg 88%
    15:00 +3°C° 0.4 mm 1 mps 684 mmHg 91%
    16:00 +3°C° 0.4 mm 1 mps 684 mmHg 94%
    17:00 +3°C° 0.6 mm 1 mps 685 mmHg 95%
    18:00 +3°C° 0.6 mm 1 mps 685 mmHg 95%
    19:00 +2°C° 0.6 mm 1 mps 685 mmHg 96%
    20:00 +2°C° 0.6 mm 1 mps 685 mmHg 96%
    21:00 +2°C° 0.6 mm 1 mps 685 mmHg 96%
    22:00 +2°C° 0.6 mm 1 mps 685 mmHg 96%
    23:00 +1°C° 0.6 mm 2 mps 685 mmHg 96%
    Show more